CEB1192 RPVM-RPMD

Flight info

Callsign CEB1192
Flight time 0h 43m
Altitude 29000
Route BAMPA2A BAMPA W14 BN W9 RIMAR RIMAR2R
Aircraft A320/M-SDE3FGHIRWY/LB1

Departure

Time 2026-05-07 10:32
Airport Mactan Cebu International Airport (RPVM)

Arrival

Time 2026-05-07 11:15
Airport Francisco Bangoy International Airport (RPMD)
Time Latitude Longitude Altitude Speed Heading
2026-05-07 09:50 10.31466 123.97878 39 ft 0 kts 314°
2026-05-07 10:22 10.31460 123.97885 37 ft 4 kts 311°
2026-05-07 10:22 10.31444 123.97907 37 ft 4 kts 298°
2026-05-07 10:22 10.31434 123.97932 39 ft 4 kts 279°
2026-05-07 10:22 10.31433 123.97959 39 ft 4 kts 253°
2026-05-07 10:23 10.31444 123.97981 36 ft 2 kts 226°
2026-05-07 10:23 10.31446 123.97983 39 ft 0 kts 225°
2026-05-07 10:26 10.31443 123.97980 39 ft 4 kts 225°
2026-05-07 10:26 10.31400 123.97936 39 ft 12 kts 225°
2026-05-07 10:26 10.31338 123.97899 39 ft 10 kts 181°
2026-05-07 10:26 10.31288 123.97932 39 ft 8 kts 137°
2026-05-07 10:27 10.31243 123.97975 38 ft 11 kts 145°
2026-05-07 10:27 10.31178 123.97963 39 ft 9 kts 224°
2026-05-07 10:27 10.31134 123.97917 39 ft 9 kts 224°
2026-05-07 10:27 10.31071 123.97856 38 ft 17 kts 224°
2026-05-07 10:28 10.30965 123.97748 37 ft 25 kts 225°
2026-05-07 10:28 10.30832 123.97616 38 ft 29 kts 224°
2026-05-07 10:28 10.30685 123.97468 39 ft 30 kts 225°
2026-05-07 10:28 10.30530 123.97314 38 ft 32 kts 224°
2026-05-07 10:29 10.30370 123.97152 39 ft 33 kts 225°
2026-05-07 10:29 10.30202 123.96982 37 ft 34 kts 225°
2026-05-07 10:29 10.30051 123.96830 37 ft 22 kts 225°
2026-05-07 10:30 10.29873 123.96717 38 ft 14 kts 142°
2026-05-07 10:30 10.29807 123.96784 37 ft 14 kts 134°
2026-05-07 10:30 10.29740 123.96853 34 ft 14 kts 135°
2026-05-07 10:30 10.29733 123.96918 32 ft 10 kts 50°
2026-05-07 10:31 10.29786 123.96971 33 ft 12 kts 44°
2026-05-07 10:31 10.29914 123.97096 32 ft 54 kts 44°
2026-05-07 10:31 10.30351 123.97533 36 ft 119 kts 45°
2026-05-07 10:31 10.31077 123.98249 55 ft 167 kts 41°
2026-05-07 10:32 10.31902 123.99074 745 ft 165 kts 44°
2026-05-07 10:32 10.32696 123.99911 1483 ft 164 kts 47°
2026-05-07 10:32 10.33512 124.00743 2079 ft 173 kts 47°
2026-05-07 10:32 10.34261 124.01794 2358 ft 196 kts 63°
2026-05-07 10:33 10.34730 124.03190 2621 ft 225 kts 81°
2026-05-07 10:33 10.34716 124.04866 3011 ft 251 kts 99°
2026-05-07 10:33 10.34068 124.06539 3767 ft 260 kts 121°
2026-05-07 10:33 10.32807 124.07889 4660 ft 269 kts 141°
2026-05-07 10:34 10.31104 124.08717 5564 ft 275 kts 157°
2026-05-07 10:34 10.29285 124.09316 6475 ft 276 kts 158°
2026-05-07 10:34 10.27441 124.09902 7265 ft 279 kts 159°
2026-05-07 10:34 10.25577 124.10472 8056 ft 281 kts 159°
2026-05-07 10:35 10.23699 124.11077 8798 ft 285 kts 157°
2026-05-07 10:35 10.21812 124.11736 9567 ft 288 kts 157°
2026-05-07 10:35 10.19898 124.12400 10236 ft 292 kts 157°
2026-05-07 10:35 10.18026 124.13196 10657 ft 304 kts 146°
2026-05-07 10:36 10.16421 124.14636 10861 ft 317 kts 124°
2026-05-07 10:36 10.15157 124.16551 11031 ft 337 kts 122°
2026-05-07 10:36 10.13739 124.18536 11184 ft 356 kts 126°
2026-05-07 10:36 10.12104 124.20473 11643 ft 365 kts 130°
2026-05-07 10:37 10.10334 124.22351 12204 ft 369 kts 132°
2026-05-07 10:37 10.08523 124.24220 12781 ft 373 kts 132°
2026-05-07 10:37 10.06710 124.26122 13346 ft 377 kts 131°
2026-05-07 10:37 10.04914 124.28071 13875 ft 380 kts 130°
2026-05-07 10:38 10.03131 124.30064 14363 ft 383 kts 130°
2026-05-07 10:38 10.01341 124.32086 14842 ft 386 kts 130°
2026-05-07 10:38 9.99537 124.34112 15310 ft 389 kts 130°
2026-05-07 10:38 9.97703 124.36154 15796 ft 392 kts 130°
2026-05-07 10:39 9.95856 124.38196 16263 ft 394 kts 130°
2026-05-07 10:39 9.93989 124.40253 16703 ft 397 kts 130°
2026-05-07 10:39 9.92112 124.42318 17164 ft 400 kts 131°
2026-05-07 10:39 9.90225 124.44397 17626 ft 402 kts 130°
2026-05-07 10:40 9.88325 124.46493 18066 ft 404 kts 131°
2026-05-07 10:40 9.86416 124.48603 18412 ft 408 kts 131°
2026-05-07 10:40 9.84489 124.50736 18731 ft 411 kts 131°
2026-05-07 10:40 9.82550 124.52880 19079 ft 414 kts 131°
2026-05-07 10:41 9.80599 124.55038 19421 ft 416 kts 131°
2026-05-07 10:41 9.78634 124.57207 19772 ft 419 kts 131°
2026-05-07 10:41 9.76655 124.59390 20120 ft 422 kts 131°
2026-05-07 10:41 9.74662 124.61591 20467 ft 424 kts 131°
2026-05-07 10:42 9.72662 124.63802 20808 ft 427 kts 131°
2026-05-07 10:42 9.70652 124.66027 21133 ft 429 kts 131°
2026-05-07 10:42 9.68627 124.68269 21477 ft 432 kts 131°
2026-05-07 10:42 9.66595 124.70519 21792 ft 434 kts 131°
2026-05-07 10:43 9.64550 124.72782 22122 ft 437 kts 131°
2026-05-07 10:43 9.62515 124.75030 22425 ft 439 kts 131°
2026-05-07 10:43 9.60442 124.77320 22714 ft 442 kts 131°
2026-05-07 10:43 9.58357 124.79622 23021 ft 445 kts 131°
2026-05-07 10:44 9.56256 124.81940 23324 ft 447 kts 130°
2026-05-07 10:44 9.54152 124.84264 23584 ft 449 kts 131°
2026-05-07 10:44 9.52033 124.86607 23825 ft 451 kts 131°
2026-05-07 10:44 9.49906 124.88955 24059 ft 453 kts 131°
2026-05-07 10:45 9.47768 124.91312 24307 ft 455 kts 131°
2026-05-07 10:45 9.45618 124.93680 24561 ft 457 kts 131°
2026-05-07 10:45 9.43461 124.96049 24824 ft 458 kts 131°
2026-05-07 10:45 9.41288 124.98415 25045 ft 460 kts 131°
2026-05-07 10:46 9.39096 125.00790 25300 ft 461 kts 132°
2026-05-07 10:46 9.36904 125.03164 25578 ft 461 kts 132°
2026-05-07 10:46 9.34716 125.05537 25841 ft 462 kts 132°
2026-05-07 10:46 9.32521 125.07915 26060 ft 463 kts 132°
2026-05-07 10:47 9.30317 125.10304 26300 ft 464 kts 132°
2026-05-07 10:47 9.28112 125.12697 26538 ft 465 kts 132°
2026-05-07 10:47 9.25906 125.15096 26780 ft 466 kts 132°
2026-05-07 10:47 9.23694 125.17500 27007 ft 467 kts 132°
2026-05-07 10:48 9.21475 125.19908 27241 ft 468 kts 132°
2026-05-07 10:48 9.19255 125.22314 27552 ft 467 kts 132°
2026-05-07 10:48 9.17791 125.23903 27773 ft 466 kts 132°
2026-05-07 10:48 9.14832 125.27109 28274 ft 463 kts 132°
2026-05-07 10:49 9.13380 125.28681 28561 ft 461 kts 132°
2026-05-07 10:49 9.11193 125.31051 28795 ft 460 kts 132°
2026-05-07 10:49 9.06087 125.36591 28863 ft 460 kts 132°
2026-05-07 10:50 9.02459 125.40527 28863 ft 460 kts 132°
2026-05-07 10:50 8.97956 125.45128 28873 ft 462 kts 140°
2026-05-07 10:51 8.92309 125.48238 28874 ft 466 kts 160°
2026-05-07 10:51 8.85898 125.49327 28867 ft 470 kts 172°
2026-05-07 10:52 8.79390 125.49978 28860 ft 469 kts 172°
2026-05-07 10:52 8.72891 125.50638 28859 ft 469 kts 172°
2026-05-07 10:53 8.66438 125.51299 28857 ft 469 kts 172°
2026-05-07 10:53 8.59944 125.51960 28858 ft 469 kts 172°
2026-05-07 10:54 8.53454 125.52614 28858 ft 469 kts 172°
2026-05-07 10:54 8.47062 125.53229 28888 ft 452 kts 173°
2026-05-07 10:55 8.40820 125.53774 28887 ft 449 kts 173°
2026-05-07 10:55 8.34589 125.54317 28887 ft 449 kts 173°
2026-05-07 10:56 8.28358 125.54879 28887 ft 451 kts 173°
2026-05-07 10:56 8.22155 125.55435 28878 ft 439 kts 173°
2026-05-07 10:57 8.16110 125.55974 28802 ft 435 kts 173°
2026-05-07 10:57 8.13072 125.56247 27799 ft 443 kts 173°
2026-05-07 10:57 8.09983 125.56526 26982 ft 445 kts 173°
2026-05-07 10:58 8.06911 125.56803 26423 ft 440 kts 173°
2026-05-07 10:58 8.03863 125.57076 25713 ft 440 kts 173°
2026-05-07 10:58 8.00809 125.57346 24897 ft 442 kts 173°
2026-05-07 10:58 7.97683 125.57414 23500 ft 459 kts 181°
2026-05-07 10:59 7.94460 125.56957 22030 ft 475 kts 191°
2026-05-07 10:59 7.91259 125.56043 20911 ft 480 kts 195°
2026-05-07 10:59 7.88073 125.55090 20024 ft 474 kts 194°
2026-05-07 10:59 7.84931 125.54163 19003 ft 467 kts 194°
2026-05-07 11:00 7.81868 125.53269 17978 ft 458 kts 194°
2026-05-07 11:00 7.78796 125.52377 16587 ft 449 kts 194°
2026-05-07 11:00 7.75873 125.51527 15699 ft 434 kts 194°
2026-05-07 11:00 7.73043 125.50701 15036 ft 414 kts 194°
2026-05-07 11:01 7.70295 125.49897 14373 ft 411 kts 194°
2026-05-07 11:01 7.67544 125.49092 13722 ft 411 kts 194°
2026-05-07 11:01 7.64809 125.48292 13030 ft 409 kts 194°
2026-05-07 11:01 7.62079 125.47495 12407 ft 405 kts 194°
2026-05-07 11:02 7.59382 125.46705 11783 ft 402 kts 194°
2026-05-07 11:02 7.56706 125.45918 11242 ft 396 kts 194°
2026-05-07 11:02 7.54120 125.45158 11108 ft 378 kts 194°
2026-05-07 11:02 7.51642 125.44432 10993 ft 362 kts 194°
2026-05-07 11:03 7.49269 125.43735 10873 ft 348 kts 194°
2026-05-07 11:03 7.46985 125.43065 10756 ft 336 kts 194°
2026-05-07 11:03 7.44784 125.42422 10638 ft 321 kts 194°
2026-05-07 11:03 7.42678 125.41806 10489 ft 311 kts 194°
2026-05-07 11:04 7.40621 125.41205 10255 ft 305 kts 194°
2026-05-07 11:04 7.38591 125.40611 10029 ft 302 kts 194°
2026-05-07 11:04 7.36585 125.40023 9909 ft 301 kts 194°
2026-05-07 11:04 7.34540 125.39601 9792 ft 299 kts 182°
2026-05-07 11:05 7.32478 125.39686 9669 ft 295 kts 168°
2026-05-07 11:05 7.30470 125.40104 9338 ft 294 kts 166°
2026-05-07 11:05 7.28468 125.40532 8950 ft 293 kts 166°
2026-05-07 11:05 7.26476 125.40958 8552 ft 292 kts 166°
2026-05-07 11:06 7.24493 125.41381 8160 ft 291 kts 166°
2026-05-07 11:06 7.22539 125.41798 7780 ft 290 kts 166°
2026-05-07 11:06 7.20545 125.42224 7385 ft 289 kts 166°
2026-05-07 11:06 7.18603 125.42638 7001 ft 288 kts 166°
2026-05-07 11:07 7.16667 125.43047 6610 ft 279 kts 167°
2026-05-07 11:07 7.14808 125.43437 6244 ft 267 kts 167°
2026-05-07 11:07 7.13023 125.43811 5875 ft 257 kts 166°
2026-05-07 11:07 7.11301 125.44171 5529 ft 247 kts 166°
2026-05-07 11:08 7.09641 125.44519 5205 ft 240 kts 167°
2026-05-07 11:08 7.08027 125.44858 4884 ft 233 kts 166°
2026-05-07 11:08 7.06460 125.45188 4570 ft 227 kts 166°
2026-05-07 11:08 7.05007 125.45666 4365 ft 214 kts 148°
2026-05-07 11:09 7.03730 125.46385 4175 ft 209 kts 149°
2026-05-07 11:09 7.02458 125.47089 3980 ft 208 kts 150°
2026-05-07 11:09 7.01215 125.47775 3811 ft 198 kts 149°
2026-05-07 11:09 7.00280 125.48690 3612 ft 184 kts 112°
2026-05-07 11:10 7.00151 125.49893 3434 ft 169 kts 73°
2026-05-07 11:10 7.00744 125.50856 3291 ft 161 kts 49°
2026-05-07 11:10 7.01484 125.51712 3111 ft 164 kts 50°
2026-05-07 11:10 7.02243 125.52594 2901 ft 167 kts 49°
2026-05-07 11:11 7.03005 125.53480 2689 ft 168 kts 50°
2026-05-07 11:11 7.03768 125.54366 2464 ft 167 kts 50°
2026-05-07 11:11 7.04528 125.55249 2244 ft 166 kts 50°
2026-05-07 11:11 7.05286 125.56130 2028 ft 166 kts 50°
2026-05-07 11:12 7.06036 125.57001 1813 ft 163 kts 50°
2026-05-07 11:12 7.06761 125.57844 1605 ft 155 kts 50°
2026-05-07 11:12 7.07454 125.58649 1425 ft 147 kts 50°
2026-05-07 11:12 7.08106 125.59406 1229 ft 143 kts 50°
2026-05-07 11:13 7.08754 125.60161 1028 ft 142 kts 50°
2026-05-07 11:13 7.09399 125.60910 839 ft 141 kts 50°
2026-05-07 11:13 7.10040 125.61655 665 ft 141 kts 50°
2026-05-07 11:13 7.10680 125.62403 462 ft 141 kts 49°
2026-05-07 11:14 7.11330 125.63164 221 ft 146 kts 49°
2026-05-07 11:14 7.12000 125.63929 82 ft 142 kts 49°
2026-05-07 11:14 7.12570 125.64597 71 ft 104 kts 49°
2026-05-07 11:14 7.12933 125.65020 82 ft 55 kts 49°
2026-05-07 11:15 7.13131 125.65246 78 ft 41 kts 49°
2026-05-07 11:15 7.13302 125.65443 81 ft 34 kts 49°
2026-05-07 11:15 7.13399 125.65514 81 ft 9 kts 11°
2026-05-07 11:15 7.13424 125.65516 80 ft 7 kts
2026-05-07 11:16 7.13434 125.65565 82 ft 14 kts 154°
2026-05-07 11:16 7.13353 125.65500 73 ft 17 kts 230°
2026-05-07 11:16 7.13259 125.65396 82 ft 23 kts 229°
2026-05-07 11:16 7.13149 125.65267 70 ft 26 kts 229°
2026-05-07 11:17 7.13029 125.65130 81 ft 26 kts 229°
2026-05-07 11:17 7.12912 125.64996 82 ft 16 kts 228°
2026-05-07 11:17 7.12884 125.64927 81 ft 9 kts 279°
2026-05-07 11:17 7.12923 125.64883 81 ft 8 kts 321°
2026-05-07 11:18 7.12975 125.64836 82 ft 14 kts 318°
2026-05-07 11:18 7.13038 125.64784 80 ft 10 kts 321°
2026-05-07 11:18 7.13058 125.64768 82 ft 2 kts 320°
2026-05-07 11:18 7.13071 125.64756 83 ft 6 kts 320°
2026-05-07 11:19 7.13095 125.64735 82 ft 3 kts 319°
2026-05-07 11:19 7.13097 125.64734 82 ft 0 kts 320°